Regional Weather Roundup
Issued by NWS

Home | Current Version | Previous Version | Text Only | Print | Product List | Glossary On
Versions: 1 2 3 4 5 6 7 8 9 10 11 12 13 14 15 16 17 18 19 20 21 22 23 24 25 26 27 28 29 30 31 32 33 34 35 36 37 38 39 40 41 42 43 44 45 46 47 48 49 50
445
ASUS43 KLSX 081510
RWRMO

WEATHER SUMMARY FOR MISSOURI
NATIONAL WEATHER SERVICE SPRINGFIELD MO
900 AM CST MON FEB 08 2016

NOTE: "FAIR" INDICATES FEW OR NO CLOUDS BELOW 12,000 FEET WITH NO
       SIGNIFICANT WEATHER AND/OR OBSTRUCTIONS TO VISIBILITY.
       CURRENT SKY AND/OR WEATHER CONDITIONS ARE NOT AVAILABLE FOR
       CHILLICOTHE AND FARMINGTON.

MOZ001>031-035>038-043-044-053-054-081600-
...NORTHERN AND WESTERN MISSOURI...

CITY           SKY/WX    TMP DP  RH WIND       PRES   REMARKS
KANSAS CTY INT FLURRIES  30  18  60 NW23G44   30.03R WCI  17
KANSAS C DTWN  CLOUDY    33  19  56 NW23G35   30.02R WCI  21
LEE`S SUMMIT   CLOUDY    31  18  58 NW23      30.01R WCI  18
ST JOSEPH      FLURRIES  29  18  63 N21G33    30.05R WCI  16
CHILLICOTHE      N/A     26  13  57 NW21G37   29.99R WCI  12
KIRKSVILLE     FLURRIES  20  10  65 NW17G30   29.91R WCI   5

$$
MOZ066>068-077>081-088>096-101>105-081600-
...SOUTHWEST MISSOURI...

CITY           SKY/WX    TMP DP  RH WIND       PRES   REMARKS
SPRINGFIELD    CLOUDY    35  17  47 NW14G28   29.96S WCI  26
JOPLIN         CLOUDY    36  20  52 W18       30.06S WCI  26

$$
MOZ032>034-039>042-045>050-055>058-069>072-081600-
...CENTRAL MISSOURI...

CITY           SKY/WX    TMP DP  RH WIND       PRES   REMARKS
COLUMBIA       CLOUDY    26  14  60 NW20G33   29.91R WCI  12
JEFFERSON CITY CLOUDY    28  15  58 NW22G35   29.94R WCI  14
ROLLA          CLOUDY    27  20  75 NW22G36   29.88R HAZE    WCI  13
SEDALIA        FLURRIES  29  19  66 NW23G37   29.98R WCI  15
WHITEMAN AFB   LGT SNOW  29  22  73 NW18G29   29.98R WCI  17
WARRENSBURG    LGT SNOW  30  25  80 NW18G25   30.01R WCI  18
OSAGE BEACH    CLOUDY    30  18  59 W9G18     29.94S WCI  22

$$
MOZ051-052-059>065-081600-
...EAST CENTRAL MISSOURI...

CITY           SKY/WX    TMP DP  RH WIND       PRES   REMARKS
ST LOUIS INTL  FLURRIES  28  21  74 NW16      29.85R WCI  17
SPIRIT OF STL  CLOUDY    30  15  53 NW20G30   29.86R WCI  17
ST CHARLES     LGT SNOW  27  22  81 W21G29    29.85R WCI  13

$$
MOZ072>076-082>087-097>100-106>115-081600-
...SOUTH CENTRAL AND SOUTHEAST MISSOURI...

CITY           SKY/WX    TMP DP  RH WIND       PRES   REMARKS
CAPE GIRARDEAU CLOUDY    37  25  61 NW20G26   29.85R WCI  27
FARMINGTON     FLURRIES  30  21  69 NW16G22   29.85R WCI  19
POPLAR BLUFF   CLOUDY    38  21  50 NW16G25   29.88R WCI  29
WEST PLAINS    CLOUDY    35  18  49 W17G25    29.90S WCI  25

$$




USA.gov is the U.S. government's official web portal to all federal, state and local government web resources and services.